PISAT (41784 NORAD) Tracking and Keplerian Element Data

This shows tracking and keplerian element data for the satellite.

Feedback or suggestion? Click here.




ElementValue
Catalog41784
NamePISAT
Epoch Orbit14220
Epoch Day146.76349988
Epoch Year2019
RAAN207.5316
Inclination98.0704
Eccentricity0.0033387
Argument of Perigee94.2878
Mean Anonmoly266.214
Mean Motion14.63428158
Decay Rate5.9E-07
L11 41784U 16059B 19146.76349988 .00000059 00000-0 20549-4 0 9998
L22 41784 98.0704 207.5316 0033387 94.2878 266.2140 14.63428158142202

Live tracking and technical data element details for PISAT (NORAD 41784). PISAT can be tracked NOW for your location showing map with azimuth and elevation plus other details from your city location.

Track the satellite on the map from your city or location and see movement details for azimuth, elevation, latitude, longitude, range, height, and movement on the map or in text.







IsCatalogInMostPopularTable: catalog: 41784, numindb: 223
Update: records affected: 1



GetName: 41784 PISAT

Hit Count: updated at: Mon, 27 May 2019 03:06:38 GMT